星链-34103 (STARLINK-34103)

导读 | 豆包AI

STARLINK-34103是美国太空探索技术公司(SpaceX)于2025年5月13日发射的星链(Starlink)低轨互联网卫星,隶属于星链卫星互联网星座。该卫星运行于近地轨道,采用相控阵天线与激光星间链路技术,可为全球提供高速低延迟互联网接入服务,支持居民宽带、企业专线及手机直连通信等多场景应用,助力星链组网实现全球全域网络覆盖。

基本信息
目录编号:
63962
目录名称:
STARLINK-34103
国际标识:
2025-099L
轨道中心:
EARTH
卫星名称:
星链-34103
卫星全名:
星链-34103 (STARLINK-34103)
卫星状态:
在轨 (已飞行351 天)
发射日期:
2025-05-13 UTC
国别 :
美国 (US)
星等 :
--
轨道信息
数据来源 国际轨道数据
星历时间: 2026-04-29T09:59:00+0800
15小时前
查看轨道信息
半长轴: 6861.116km
偏心率: 0.0001335
轨道倾角: 43.001°
近地点辐角 278.079°
升交点赤经 251.596°
平近点角 81.991°
近地点: 482.063km
远地点: 483.895km
周期: 94.265分钟
每日圈数: 15.276036
详细信息
固有亮度:
5
最大亮度:
2.5
卫星平台:
Starlink V1.0
覆盖范围:
全球
运营商:
太空探索技术公司
运营商所在国:
美国
制造商(研发单位):
太空探索技术公司
制造商所在国:
美国
使用方式:
暂无
卫星简介
Starlink 计划是 SpaceX 推出的全球卫星互联网项目,通过发射低轨道卫星,为全球尤其是偏远地区提供高速、低延迟的互联网服务。自 2019 年起,Starlink 已部署数千颗卫星,旨在缩小全球数字鸿沟,推动互联网普及。该项目还为军事、航空等行业提供通信支持,带来广泛经济效益。
2D轨道图
3D轨道图
轨道高度分析图
轨道倾角分析图
轨道综合分析图
查看轨道综合分析图